{"data":{"norad_id":65431,"epoch":"2026-05-24T23:45:32.471424Z","epoch_age_seconds":86219,"freshness":"FRESH","line1":"1 65431U 25192AD  26144.98995916  .00014090  00000+0  48679-3 0  9991","line2":"2 65431  53.1591 238.1120 0000972  76.1042 284.0067 15.30208939 41068","mean_motion":15.30208939,"eccentricity":9.72e-5,"inclination_deg":53.1591,"raan_deg":238.112,"arg_perigee_deg":76.1042,"mean_anomaly_deg":284.0067,"bstar":0.00048679,"rev_number":4106,"period_min":94.104795972571,"perigee_km":474.52223607965,"apogee_km":475.85452253339,"semimajor_km":6853.3253793065,"source":"CELESTRAK","updated_at":"2026-05-25T13:38:20.805176Z"}}